| time (UTC) | temp C | wind direction | speed KPH | gust KPH | rain 1hr cm | rain 24hr cm | rain mn cm | humidity % | barometer mb |
| 20260903222604 | 23 | 36 | 16.1 | 24.1 | 0.00 | 0.00 | 0.00 | 67 | 1014.2 |
| 20260903222522 | 23 | 36 | 16.1 | 24.1 | 0.00 | 0.00 | 0.00 | 67 | 1014.2 |
| 20260903222115 | 23 | 35 | 9.7 | 24.1 | 0.00 | 0.00 | 0.00 | 66 | 1014.3 |
| 20260903222032 | 23 | 35 | 9.7 | 24.1 | 0.00 | 0.00 | 0.00 | 66 | 1014.3 |
| 20260903221548 | 23 | 35 | 14.5 | 27.4 | 0.00 | 0.00 | 0.00 | 68 | 1014.2 |
| 20260903221101 | 23 | 35 | 16.1 | 20.9 | 0.00 | 0.00 | 0.00 | 63 | 1014.4 |
| 20260903220534 | 23 | 32 | 11.3 | 20.9 | 0.00 | 0.00 | 0.00 | 63 | 1014.4 |
| 20260903220013 | 23 | 35 | 14.5 | 20.9 | 0.00 | 0.00 | 0.00 | 61 | 1014.5 |
| 20260903215527 | 23 | 34 | 11.3 | 20.9 | 0.00 | 0.00 | 0.00 | 64 | 1014.4 |
| 20260903215100 | 23 | 35 | 16.1 | 24.1 | 0.00 | 0.00 | 0.00 | 67 | 1014.5 |
| 20260903215018 | 23 | 35 | 16.1 | 24.1 | 0.00 | 0.00 | 0.00 | 67 | 1014.5 |
| 20260903214610 | 23 | 35 | 16.1 | 25.7 | 0.00 | 0.00 | 0.00 | 66 | 1014.5 |
| 20260903214527 | 23 | 35 | 16.1 | 25.7 | 0.00 | 0.00 | 0.00 | 66 | 1014.5 |
| 20260903214101 | 23 | 35 | 14.5 | 25.7 | 0.00 | 0.00 | 0.00 | 67 | 1014.5 |
| 20260903213552 | 23 | 35 | 17.7 | 25.7 | 0.00 | 0.00 | 0.00 | 67 | 1014.6 |
| 20260903213053 | 23 | 35 | 16.1 | 24.1 | 0.00 | 0.00 | 0.00 | 67 | 1014.6 |
| 20260903212606 | 23 | 35 | 14.5 | 24.1 | 0.00 | 0.00 | 0.00 | 67 | 1014.6 |
| 20260903212523 | 23 | 35 | 14.5 | 24.1 | 0.00 | 0.00 | 0.00 | 67 | 1014.6 |
| 20260903212038 | 23 | 36 | 14.5 | 20.9 | 0.00 | 0.00 | 0.00 | 68 | 1014.6 |
| 20260903211535 | 23 | 35 | 12.9 | 24.1 | 0.00 | 0.00 | 0.00 | 67 | 1014.6 |
| 20260903211050 | 23 | 35 | 11.3 | 24.1 | 0.00 | 0.00 | 0.00 | 68 | 1014.6 |
| 20260903210603 | 23 | 34 | 12.9 | 20.9 | 0.00 | 0.00 | 0.00 | 68 | 1014.6 |
| 20260903210520 | 23 | 34 | 12.9 | 20.9 | 0.00 | 0.00 | 0.00 | 68 | 1014.6 |
| 20260903210112 | 23 | 35 | 12.9 | 25.7 | 0.00 | 0.00 | 0.00 | 66 | 1014.6 |
| 20260903205543 | 23 | 38 | 14.5 | 25.7 | 0.00 | 0.00 | 0.00 | 69 | 1014.6 |
| 20260903205055 | 23 | 34 | 11.3 | 19.3 | 0.00 | 0.00 | 0.00 | 68 | 1014.6 |
| 20260903204531 | 23 | 34 | 12.9 | 22.5 | 0.00 | 0.00 | 0.00 | 68 | 1014.6 |
| 20260903204104 | 23 | 36 | 12.9 | 24.1 | 0.00 | 0.00 | 0.00 | 69 | 1014.6 |
| 20260903203515 | 23 | 35 | 12.9 | 24.1 | 0.00 | 0.00 | 0.00 | 69 | 1014.7 |
| 20260903203035 | 23 | 34 | 14.5 | 24.1 | 0.00 | 0.00 | 0.00 | 69 | 1014.8 |
| 20260903202604 | 23 | 32 | 11.3 | 22.5 | 0.00 | 0.00 | 0.00 | 68 | 1014.8 |
| 20260903202522 | 23 | 32 | 11.3 | 22.5 | 0.00 | 0.00 | 0.00 | 68 | 1014.8 |
| 20260903202041 | 23 | 36 | 14.5 | 22.5 | 0.00 | 0.00 | 0.00 | 68 | 1014.8 |
| 20260903201558 | 23 | 32 | 9.7 | 19.3 | 0.00 | 0.00 | 0.00 | 68 | 1014.8 |
| 20260903201516 | 23 | 32 | 9.7 | 19.3 | 0.00 | 0.00 | 0.00 | 68 | 1014.8 |
| 20260903201014 | 23 | 35 | 12.9 | 19.3 | 0.00 | 0.00 | 0.00 | 66 | 1014.9 |
| 20260903200605 | 23 | 34 | 14.5 | 20.9 | 0.00 | 0.00 | 0.00 | 66 | 1014.8 |
| 20260903200522 | 23 | 34 | 14.5 | 20.9 | 0.00 | 0.00 | 0.00 | 66 | 1014.8 |
| 20260903200041 | 23 | 36 | 11.3 | 17.7 | 0.00 | 0.00 | 0.00 | 66 | 1014.8 |
| 20260903195513 | 24 | 38 | 11.3 | 19.3 | 0.00 | 0.00 | 0.00 | 65 | 1014.9 |
| 20260903195107 | 23 | 34 | 11.3 | 22.5 | 0.00 | 0.00 | 0.00 | 66 | 1015.0 |
| 20260903195024 | 23 | 34 | 11.3 | 22.5 | 0.00 | 0.00 | 0.00 | 66 | 1015.0 |
| 20260903194614 | 23 | 34 | 16.1 | 24.1 | 0.00 | 0.00 | 0.00 | 66 | 1015.1 |
| 20260903194046 | 24 | 36 | 11.3 | 24.1 | 0.00 | 0.00 | 0.00 | 66 | 1015.0 |
| 20260903193559 | 23 | 35 | 11.3 | 24.1 | 0.00 | 0.00 | 0.00 | 66 | 1015.1 |
| 20260903193108 | 23 | 36 | 9.7 | 22.5 | 0.00 | 0.00 | 0.00 | 65 | 1015.1 |
| 20260903193025 | 23 | 36 | 9.7 | 22.5 | 0.00 | 0.00 | 0.00 | 65 | 1015.1 |
| 20260903192539 | 23 | 34 | 12.9 | 22.5 | 0.00 | 0.00 | 0.00 | 65 | 1015.2 |
| 20260903192053 | 23 | 36 | 11.3 | 19.3 | 0.00 | 0.00 | 0.00 | 65 | 1015.2 |
| 20260903191532 | 24 | 36 | 8.0 | 24.1 | 0.00 | 0.00 | 0.00 | 65 | 1015.2 |
| 20260903191047 | 24 | 34 | 14.5 | 20.9 | 0.00 | 0.00 | 0.00 | 63 | 1015.2 |
| 20260903190558 | 24 | 35 | 16.1 | 20.9 | 0.00 | 0.00 | 0.00 | 63 | 1015.3 |
| 20260903190516 | 24 | 35 | 16.1 | 20.9 | 0.00 | 0.00 | 0.00 | 63 | 1015.3 |
| 20260903190016 | 24 | 35 | 14.5 | 20.9 | 0.00 | 0.00 | 0.00 | 62 | 1015.3 |
| 20260903185610 | 24 | 34 | 11.3 | 20.9 | 0.00 | 0.00 | 0.00 | 61 | 1015.4 |
| 20260903185528 | 24 | 34 | 11.3 | 20.9 | 0.00 | 0.00 | 0.00 | 61 | 1015.4 |
| 20260903185101 | 25 | 32 | 12.9 | 19.3 | 0.00 | 0.00 | 0.00 | 60 | 1015.5 |
| 20260903184611 | 25 | 36 | 12.9 | 19.3 | 0.00 | 0.00 | 0.00 | 60 | 1015.6 |
| 20260903184041 | 25 | 36 | 9.7 | 19.3 | 0.00 | 0.00 | 0.00 | 60 | 1015.7 |
| 20260903183535 | 24 | 35 | 9.7 | 19.3 | 0.00 | 0.00 | 0.00 | 60 | 1015.8 |
| 20260903183057 | 24 | 36 | 14.5 | 19.3 | 0.00 | 0.00 | 0.00 | 61 | 1015.9 |
| 20260903183014 | 24 | 36 | 14.5 | 19.3 | 0.00 | 0.00 | 0.00 | 61 | 1015.9 |
| 20260903182527 | 24 | 36 | 8.0 | 17.7 | 0.00 | 0.00 | 0.00 | 61 | 1015.9 |
| 20260903182042 | 24 | 35 | 11.3 | 17.7 | 0.00 | 0.00 | 0.00 | 61 | 1015.9 |
| 20260903181559 | 25 | 35 | 4.8 | 14.5 | 0.00 | 0.00 | 0.00 | 61 | 1016.0 |
| 20260903181013 | 24 | 35 | 9.7 | 14.5 | 0.00 | 0.00 | 0.00 | 61 | 1015.9 |
| 20260903180549 | 24 | 38 | 4.8 | 14.5 | 0.00 | 0.00 | 0.00 | 60 | 1015.9 |
| 20260903180107 | 24 | 35 | 3.2 | 14.5 | 0.00 | 0.00 | 0.00 | 60 | 1016.0 |
| 20260903180025 | 24 | 35 | 3.2 | 14.5 | 0.00 | 0.00 | 0.00 | 60 | 1016.0 |
| 20260903175522 | 23 | 35 | 8.0 | 16.1 | 0.00 | 0.00 | 0.00 | 59 | 1016.0 |
| 20260903175037 | 23 | 35 | 3.2 | 11.3 | 0.00 | 0.00 | 0.00 | 58 | 1016.0 |
| 20260903174515 | 23 | 35 | 3.2 | 11.3 | 0.00 | 0.00 | 0.00 | 61 | 1016.1 |
| 20260903174029 | 23 | 34 | 6.4 | 11.3 | 0.00 | 0.00 | 0.00 | 61 | 1016.1 |
| 20260903173523 | 23 | 36 | 3.2 | 8.0 | 0.00 | 0.00 | 0.00 | 61 | 1016.1 |
| 20260903173106 | 23 | 36 | 3.2 | 8.0 | 0.00 | 0.00 | 0.00 | 62 | 1016.1 |
| 20260903173024 | 23 | 36 | 3.2 | 8.0 | 0.00 | 0.00 | 0.00 | 62 | 1016.1 |
| 20260903172537 | 23 | 34 | 4.8 | 8.0 | 0.00 | 0.00 | 0.00 | 61 | 1016.0 |
| 20260903172110 | 22 | 36 | 1.6 | 9.7 | 0.00 | 0.00 | 0.00 | 63 | 1016.1 |
| 20260903172027 | 22 | 36 | 1.6 | 9.7 | 0.00 | 0.00 | 0.00 | 63 | 1016.1 |
| 20260903171610 | 22 | 34 | 3.2 | 9.7 | 0.00 | 0.00 | 0.00 | 64 | 1016.0 |
| 20260903171528 | 22 | 34 | 3.2 | 9.7 | 0.00 | 0.00 | 0.00 | 64 | 1016.0 |
| 20260903171021 | 22 | 35 | 3.2 | 8.0 | 0.00 | 0.00 | 0.00 | 64 | 1016.1 |
| 20260903170535 | 22 | 35 | 3.2 | 8.0 | 0.00 | 0.00 | 0.00 | 62 | 1016.2 |
| 20260903170012 | 22 | 35 | 1.6 | 11.3 | 0.00 | 0.00 | 0.00 | 66 | 1016.2 |
| 20260903165548 | 21 | 35 | 4.8 | 9.7 | 0.00 | 0.00 | 0.00 | 67 | 1016.2 |
| 20260903165021 | 21 | 34 | 4.8 | 8.0 | 0.00 | 0.00 | 0.00 | 69 | 1016.2 |
| 20260903164604 | 21 | 32 | 4.8 | 16.1 | 0.00 | 0.00 | 0.00 | 69 | 1016.2 |
| 20260903164522 | 21 | 32 | 4.8 | 16.1 | 0.00 | 0.00 | 0.00 | 69 | 1016.2 |
| 20260903164034 | 21 | 35 | 1.6 | 16.1 | 0.00 | 0.00 | 0.00 | 71 | 1016.2 |
| 20260903163607 | 21 | 38 | 6.4 | 14.5 | 0.00 | 0.00 | 0.00 | 70 | 1016.2 |
| 20260903163524 | 21 | 38 | 6.4 | 14.5 | 0.00 | 0.00 | 0.00 | 70 | 1016.2 |
| 20260903163045 | 21 | 36 | 1.6 | 11.3 | 0.00 | 0.00 | 0.00 | 72 | 1016.2 |
| 20260903162537 | 20 | 35 | 1.6 | 9.7 | 0.00 | 0.00 | 0.00 | 73 | 1016.2 |
| 20260903162051 | 20 | 37 | 4.8 | 9.7 | 0.00 | 0.00 | 0.00 | 74 | 1016.3 |
| 20260903161529 | 20 | 36 | 6.4 | 9.7 | 0.00 | 0.00 | 0.00 | 74 | 1016.3 |
| 20260903161042 | 20 | 34 | 3.2 | 8.0 | 0.00 | 0.00 | 0.00 | 74 | 1016.3 |
| 20260903160515 | 20 | 34 | 4.8 | 8.0 | 0.00 | 0.00 | 0.00 | 76 | 1016.4 |
| 20260903160034 | 20 | 35 | 3.2 | 6.4 | 0.00 | 0.00 | 0.00 | 75 | 1016.3 |
| 20260903155527 | 20 | 35 | 1.6 | 3.2 | 0.00 | 0.00 | 0.00 | 77 | 1016.3 |
| 20260903155101 | 20 | 35 | 1.6 | 3.2 | 0.00 | 0.00 | 0.00 | 78 | 1016.3 |
| 20260903155018 | 20 | 35 | 1.6 | 3.2 | 0.00 | 0.00 | 0.00 | 78 | 1016.3 |
| 20260903154518 | 20 | 34 | 0.0 | 3.2 | 0.00 | 0.00 | 0.00 | 77 | 1016.4 |
| 20260903154113 | 20 | 36 | 1.6 | 6.4 | 0.00 | 0.00 | 0.00 | 76 | 1016.4 |
| 20260903154030 | 20 | 36 | 1.6 | 6.4 | 0.00 | 0.00 | 0.00 | 76 | 1016.4 |
| 20260903153543 | 19 | 35 | 1.6 | 6.4 | 0.00 | 0.00 | 0.00 | 74 | 1016.4 |
| 20260903153038 | 19 | 34 | 3.2 | 8.0 | 0.00 | 0.00 | 0.00 | 73 | 1016.4 |
| 20260903152610 | 19 | 34 | 1.6 | 8.0 | 0.00 | 0.00 | 0.00 | 74 | 1016.5 |
| 20260903152042 | 18 | 37 | 1.6 | 6.4 | 0.00 | 0.00 | 0.00 | 74 | 1016.5 |
| 20260903151541 | 18 | 36 | 3.2 | 9.7 | 0.00 | 0.00 | 0.00 | 75 | 1016.4 |
| 20260903151112 | 18 | 35 | 6.4 | 9.7 | 0.00 | 0.00 | 0.00 | 75 | 1016.4 |
| 20260903151030 | 18 | 35 | 6.4 | 9.7 | 0.00 | 0.00 | 0.00 | 75 | 1016.4 |
| 20260903150544 | 17 | 36 | 4.8 | 9.7 | 0.00 | 0.00 | 0.00 | 77 | 1016.4 |
| 20260903150105 | 17 | 37 | 3.2 | 9.7 | 0.00 | 0.00 | 0.00 | 78 | 1016.5 |
| 20260903145617 | 17 | 36 | 4.8 | 9.7 | 0.00 | 0.00 | 0.00 | 79 | 1016.4 |
| 20260903145047 | 17 | 35 | 4.8 | 9.7 | 0.00 | 0.00 | 0.00 | 79 | 1016.5 |
| 20260903144609 | 17 | 38 | 4.8 | 9.7 | 0.00 | 0.00 | 0.00 | 79 | 1016.5 |
| 20260903144042 | 17 | 35 | 4.8 | 12.9 | 0.00 | 0.00 | 0.00 | 80 | 1016.4 |
| 20260903143555 | 16 | 34 | 6.4 | 12.9 | 0.00 | 0.00 | 0.00 | 80 | 1016.3 |
| 20260903143055 | 16 | 36 | 8.0 | 12.9 | 0.00 | 0.00 | 0.00 | 81 | 1016.3 |
| 20260903142547 | 16 | 35 | 8.0 | 12.9 | 0.00 | 0.00 | 0.00 | 82 | 1016.2 |
| 20260903142019 | 16 | 34 | 6.4 | 12.9 | 0.00 | 0.00 | 0.00 | 83 | 1016.1 |
| 20260903141541 | 16 | 35 | 6.4 | 12.9 | 0.00 | 0.00 | 0.00 | 84 | 1016.1 |
| 20260903141114 | 16 | 36 | 8.0 | 12.9 | 0.00 | 0.00 | 0.00 | 84 | 1016.1 |
| 20260903141031 | 16 | 36 | 8.0 | 12.9 | 0.00 | 0.00 | 0.00 | 84 | 1016.1 |
| 20260903140605 | 16 | 35 | 8.0 | 14.5 | 0.00 | 0.00 | 0.00 | 85 | 1016.0 |
| 20260903140045 | 16 | 37 | 6.4 | 14.5 | 0.00 | 0.00 | 0.00 | 85 | 1015.9 |
| 20260903135559 | 15 | 35 | 8.0 | 12.9 | 0.00 | 0.00 | 0.00 | 85 | 1015.8 |
| 20260903135105 | 15 | 37 | 4.8 | 9.7 | 0.00 | 0.00 | 0.00 | 86 | 1015.7 |
| 20260903134527 | 15 | 38 | 6.4 | 12.9 | 0.00 | 0.00 | 0.00 | 86 | 1015.7 |
| 20260903134021 | 15 | 35 | 6.4 | 12.9 | 0.00 | 0.00 | 0.00 | 86 | 1015.7 |
| 20260903133515 | 15 | 35 | 6.4 | 12.9 | 0.00 | 0.00 | 0.00 | 86 | 1015.6 |
| 20260903133015 | 15 | 34 | 8.0 | 14.5 | 0.00 | 0.00 | 0.00 | 86 | 1015.6 |
| 20260903132548 | 15 | 35 | 8.0 | 14.5 | 0.00 | 0.00 | 0.00 | 86 | 1015.6 |
| 20260903132040 | 15 | 34 | 6.4 | 14.5 | 0.00 | 0.00 | 0.00 | 87 | 1015.5 |
| 20260903131603 | 15 | 35 | 6.4 | 11.3 | 0.00 | 0.00 | 0.00 | 87 | 1015.5 |
| 20260903131520 | 15 | 35 | 6.4 | 11.3 | 0.00 | 0.00 | 0.00 | 87 | 1015.5 |
| 20260903131054 | 15 | 36 | 8.0 | 12.9 | 0.00 | 0.00 | 0.00 | 87 | 1015.5 |
| 20260903130608 | 15 | 34 | 6.4 | 12.9 | 0.00 | 0.00 | 0.00 | 87 | 1015.5 |
| 20260903130041 | 15 | 38 | 6.4 | 11.3 | 0.00 | 0.00 | 0.00 | 87 | 1015.5 |
| 20260903125517 | 15 | 35 | 6.4 | 9.7 | 0.00 | 0.00 | 0.00 | 87 | 1015.5 |
| 20260903125031 | 15 | 34 | 4.8 | 9.7 | 0.00 | 0.00 | 0.00 | 87 | 1015.5 |
| 20260903124610 | 16 | 34 | 6.4 | 9.7 | 0.00 | 0.00 | 0.00 | 87 | 1015.5 |
| 20260903124025 | 16 | 38 | 6.4 | 11.3 | 0.00 | 0.00 | 0.00 | 87 | 1015.4 |
| 20260903123537 | 16 | 34 | 8.0 | 9.7 | 0.00 | 0.00 | 0.00 | 87 | 1015.4 |
| 20260903123015 | 16 | 34 | 6.4 | 9.7 | 0.00 | 0.00 | 0.00 | 87 | 1015.4 |
| 20260903122604 | 16 | 34 | 4.8 | 9.7 | 0.00 | 0.00 | 0.00 | 87 | 1015.4 |
| 20260903122041 | 16 | 32 | 6.4 | 12.9 | 0.00 | 0.00 | 0.00 | 87 | 1015.4 |
| 20260903121520 | 16 | 32 | 6.4 | 12.9 | 0.00 | 0.00 | 0.00 | 88 | 1015.4 |
| 20260903121033 | 16 | 35 | 6.4 | 11.3 | 0.00 | 0.00 | 0.00 | 88 | 1015.3 |
| 20260903120547 | 16 | 36 | 6.4 | 12.9 | 0.00 | 0.00 | 0.00 | 88 | 1015.3 |
| 20260903120041 | 15 | 36 | 6.4 | 11.3 | 0.00 | 0.00 | 0.00 | 88 | 1015.3 |
| 20260903115553 | 16 | 34 | 8.0 | 11.3 | 0.00 | 0.00 | 0.00 | 88 | 1015.4 |
| 20260903115106 | 16 | 35 | 6.4 | 11.3 | 0.00 | 0.00 | 0.00 | 89 | 1015.4 |
| 20260903115024 | 16 | 35 | 6.4 | 11.3 | 0.00 | 0.00 | 0.00 | 89 | 1015.4 |
| 20260903114616 | 16 | 34 | 6.4 | 9.7 | 0.00 | 0.00 | 0.00 | 89 | 1015.4 |
| 20260903114534 | 16 | 34 | 6.4 | 9.7 | 0.00 | 0.00 | 0.00 | 89 | 1015.4 |
| 20260903114027 | 15 | 32 | 6.4 | 9.7 | 0.00 | 0.00 | 0.00 | 89 | 1015.5 |
| 20260903113541 | 15 | 34 | 4.8 | 9.7 | 0.00 | 0.00 | 0.00 | 89 | 1015.5 |
| 20260903113112 | 15 | 36 | 3.2 | 6.4 | 0.00 | 0.00 | 0.00 | 89 | 1015.5 |
| 20260903113030 | 15 | 36 | 3.2 | 6.4 | 0.00 | 0.00 | 0.00 | 89 | 1015.5 |
| 20260903112603 | 16 | 36 | 0.0 | 3.2 | 0.00 | 0.00 | 0.00 | 89 | 1015.5 |
| 20260903112055 | 16 | 35 | 1.6 | 3.2 | 0.00 | 0.00 | 0.00 | 89 | 1015.5 |
| 20260903111555 | 16 | 37 | 0.0 | 0.0 | 0.00 | 0.00 | 0.00 | 88 | 1015.5 |
| 20260903111047 | 16 | 36 | 0.0 | 3.2 | 0.00 | 0.00 | 0.00 | 89 | 1015.5 |
| 20260903110559 | 15 | 34 | 1.6 | 1.6 | 0.00 | 0.00 | 0.00 | 88 | 1015.5 |
| 20260903110059 | 16 | 34 | 0.0 | 0.0 | 0.00 | 0.00 | 0.00 | 88 | 1015.6 |
| 20260903105530 | 16 | 34 | 0.0 | 0.0 | 0.00 | 0.00 | 0.00 | 88 | 1015.6 |
| 20260903105044 | 16 | 36 | 0.0 | 0.0 | 0.00 | 0.00 | 0.00 | 88 | 1015.6 |
| 20260903104544 | 16 | 36 | 0.0 | 0.0 | 0.00 | 0.00 | 0.00 | 88 | 1015.6 |
| 20260903104015 | 16 | 36 | 0.0 | 0.0 | 0.00 | 0.00 | 0.00 | 88 | 1015.7 |
| 20260903103529 | 16 | 34 | 0.0 | 0.0 | 0.00 | 0.00 | 0.00 | 88 | 1015.7 |
| 20260903103049 | 16 | 34 | 0.0 | 0.0 | 0.00 | 0.00 | 0.00 | 88 | 1015.7 |
| 20260903102542 | 16 | 35 | 0.0 | 1.6 | 0.00 | 0.00 | 0.00 | 88 | 1015.8 |
| 20260903102054 | 16 | 36 | 0.0 | 3.2 | 0.00 | 0.00 | 0.00 | 87 | 1015.8 |
| 20260903101536 | 16 | 36 | 0.0 | 3.2 | 0.00 | 0.00 | 0.00 | 87 | 1015.9 |
| 20260903101049 | 16 | 36 | 0.0 | 0.0 | 0.00 | 0.00 | 0.00 | 87 | 1015.9 |
| 20260903100521 | 16 | 34 | 0.0 | 1.6 | 0.00 | 0.00 | 0.00 | 87 | 1015.9 |
| 20260903100114 | 16 | 36 | 0.0 | 3.2 | 0.00 | 0.00 | 0.00 | 87 | 1016.0 |
| 20260903100031 | 16 | 36 | 0.0 | 3.2 | 0.00 | 0.00 | 0.00 | 87 | 1016.0 |
| 20260903095604 | 16 | 35 | 0.0 | 0.0 | 0.00 | 0.00 | 0.00 | 87 | 1016.0 |
| 20260903095522 | 16 | 35 | 0.0 | 0.0 | 0.00 | 0.00 | 0.00 | 87 | 1016.0 |
| 20260903095035 | 16 | 34 | 0.0 | 3.2 | 0.00 | 0.00 | 0.00 | 87 | 1016.1 |
| 20260903094556 | 16 | 37 | 0.0 | 3.2 | 0.00 | 0.00 | 0.00 | 86 | 1016.1 |
| 20260903094027 | 17 | 35 | 1.6 | 4.8 | 0.00 | 0.00 | 0.00 | 86 | 1016.2 |
| 20260903093541 | 17 | 35 | 0.0 | 6.4 | 0.00 | 0.00 | 0.00 | 86 | 1016.2 |
| 20260903093112 | 17 | 34 | 3.2 | 8.0 | 0.00 | 0.00 | 0.00 | 86 | 1016.2 |
| 20260903093030 | 17 | 34 | 3.2 | 8.0 | 0.00 | 0.00 | 0.00 | 86 | 1016.2 |
| 20260903092604 | 17 | 34 | 4.8 | 8.0 | 0.00 | 0.00 | 0.00 | 86 | 1016.2 |
| 20260903092521 | 17 | 34 | 4.8 | 8.0 | 0.00 | 0.00 | 0.00 | 86 | 1016.2 |
| 20260903092035 | 17 | 34 | 4.8 | 6.4 | 0.00 | 0.00 | 0.00 | 87 | 1016.2 |
| 20260903091515 | 17 | 36 | 3.2 | 6.4 | 0.00 | 0.00 | 0.00 | 87 | 1016.3 |
| 20260903091107 | 17 | 36 | 3.2 | 6.4 | 0.00 | 0.00 | 0.00 | 87 | 1016.4 |
| 20260903090558 | 17 | 35 | 3.2 | 6.4 | 0.00 | 0.00 | 0.00 | 87 | 1016.3 |
| 20260903090516 | 17 | 35 | 3.2 | 6.4 | 0.00 | 0.00 | 0.00 | 87 | 1016.3 |
| 20260903090016 | 17 | 36 | 3.2 | 6.4 | 0.00 | 0.00 | 0.00 | 87 | 1016.3 |
| 20260903085610 | 17 | 38 | 3.2 | 6.4 | 0.00 | 0.00 | 0.00 | 87 | 1016.4 |
| 20260903085528 | 17 | 38 | 3.2 | 6.4 | 0.00 | 0.00 | 0.00 | 87 | 1016.4 |
| 20260903085101 | 17 | 34 | 3.2 | 6.4 | 0.00 | 0.00 | 0.00 | 87 | 1016.4 |
| 20260903084557 | 17 | 34 | 3.2 | 6.4 | 0.00 | 0.00 | 0.00 | 87 | 1016.4 |
| 20260903084027 | 17 | 32 | 3.2 | 6.4 | 0.00 | 0.00 | 0.00 | 87 | 1016.4 |
| 20260903083601 | 17 | 32 | 4.8 | 6.4 | 0.00 | 0.00 | 0.00 | 87 | 1016.5 |
| 20260903083518 | 17 | 32 | 4.8 | 6.4 | 0.00 | 0.00 | 0.00 | 87 | 1016.5 |
| 20260903083111 | 17 | 38 | 4.8 | 6.4 | 0.00 | 0.00 | 0.00 | 87 | 1016.6 |
| 20260903082603 | 17 | 35 | 3.2 | 8.0 | 0.00 | 0.00 | 0.00 | 87 | 1016.6 |
| 20260903082520 | 17 | 35 | 3.2 | 8.0 | 0.00 | 0.00 | 0.00 | 87 | 1016.6 |
| 20260903082014 | 17 | 35 | 4.8 | 8.0 | 0.00 | 0.00 | 0.00 | 87 | 1016.7 |
| 20260903081515 | 17 | 38 | 4.8 | 8.0 | 0.00 | 0.00 | 0.00 | 87 | 1016.7 |
| 20260903081049 | 17 | 37 | 4.8 | 9.7 | 0.00 | 0.00 | 0.00 | 87 | 1016.6 |
| 20260903080601 | 17 | 34 | 4.8 | 6.4 | 0.00 | 0.00 | 0.00 | 87 | 1016.6 |
| 20260903080039 | 17 | 34 | 1.6 | 4.8 | 0.00 | 0.00 | 0.00 | 87 | 1016.7 |
| 20260903075610 | 17 | 36 | 1.6 | 6.4 | 0.00 | 0.00 | 0.00 | 87 | 1016.7 |
| 20260903075528 | 17 | 36 | 1.6 | 6.4 | 0.00 | 0.00 | 0.00 | 87 | 1016.7 |
| 20260903075101 | 17 | 34 | 3.2 | 6.4 | 0.00 | 0.00 | 0.00 | 87 | 1016.7 |
| 20260903074612 | 17 | 35 | 4.8 | 6.4 | 0.00 | 0.00 | 0.00 | 88 | 1016.8 |
| 20260903074530 | 17 | 35 | 4.8 | 6.4 | 0.00 | 0.00 | 0.00 | 88 | 1016.8 |
| 20260903074105 | 17 | 38 | 1.6 | 4.8 | 0.00 | 0.00 | 0.00 | 88 | 1016.8 |
| 20260903074022 | 17 | 38 | 1.6 | 4.8 | 0.00 | 0.00 | 0.00 | 88 | 1016.8 |
| 20260903073514 | 17 | 36 | 0.0 | 1.6 | 0.00 | 0.00 | 0.00 | 87 | 1016.8 |
| 20260903073033 | 17 | 34 | 0.0 | 3.2 | 0.00 | 0.00 | 0.00 | 87 | 1016.7 |
| 20260903072547 | 17 | 35 | 0.0 | 3.2 | 0.00 | 0.00 | 0.00 | 87 | 1016.7 |
| 20260903072039 | 17 | 35 | 0.0 | 0.0 | 0.00 | 0.00 | 0.00 | 87 | 1016.7 |
| 20260903071541 | 17 | 32 | 0.0 | 0.0 | 0.00 | 0.00 | 0.00 | 86 | 1016.7 |
| 20260903071033 | 17 | 35 | 0.0 | 3.2 | 0.00 | 0.00 | 0.00 | 87 | 1016.7 |
| 20260903070525 | 17 | 35 | 0.0 | 3.2 | 0.00 | 0.00 | 0.00 | 87 | 1016.7 |
| 20260903070107 | 17 | 35 | 0.0 | 0.0 | 0.00 | 0.00 | 0.00 | 87 | 1016.7 |
| 20260903065541 | 17 | 36 | 0.0 | 0.0 | 0.00 | 0.00 | 0.00 | 87 | 1016.7 |
| 20260903065053 | 17 | 35 | 0.0 | 0.0 | 0.00 | 0.00 | 0.00 | 87 | 1016.8 |
| 20260903064552 | 17 | 35 | 0.0 | 0.0 | 0.00 | 0.00 | 0.00 | 87 | 1016.7 |
| 20260903064045 | 17 | 38 | 0.0 | 0.0 | 0.00 | 0.00 | 0.00 | 87 | 1016.7 |
| 20260903063518 | 17 | 36 | 0.0 | 0.0 | 0.00 | 0.00 | 0.00 | 86 | 1016.6 |
| 20260903063038 | 17 | 35 | 0.0 | 0.0 | 0.00 | 0.00 | 0.00 | 86 | 1016.8 |
| 20260903062550 | 17 | 38 | 0.0 | 0.0 | 0.00 | 0.00 | 0.00 | 86 | 1016.7 |
| 20260903062042 | 17 | 35 | 0.0 | 0.0 | 0.00 | 0.00 | 0.00 | 86 | 1016.7 |
| 20260903061613 | 17 | 36 | 0.0 | 0.0 | 0.00 | 0.00 | 0.00 | 85 | 1016.8 |
| 20260903061530 | 17 | 36 | 0.0 | 0.0 | 0.00 | 0.00 | 0.00 | 85 | 1016.8 |
| 20260903061044 | 17 | 35 | 0.0 | 1.6 | 0.00 | 0.00 | 0.00 | 85 | 1016.8 |
| 20260903060557 | 18 | 36 | 0.0 | 3.2 | 0.00 | 0.00 | 0.00 | 85 | 1016.8 |
| 20260903060014 | 18 | 38 | 1.6 | 3.2 | 0.00 | 0.00 | 0.00 | 85 | 1016.8 |
| 20260903055548 | 18 | 35 | 0.0 | 3.2 | 0.00 | 0.00 | 0.00 | 85 | 1016.8 |
| 20260903055101 | 18 | 38 | 1.6 | 3.2 | 0.00 | 0.00 | 0.00 | 85 | 1016.8 |
| 20260903054539 | 18 | 38 | 0.0 | 3.2 | 0.00 | 0.00 | 0.00 | 85 | 1016.9 |
| 20260903054106 | 18 | 35 | 0.0 | 3.2 | 0.00 | 0.00 | 0.00 | 85 | 1016.9 |
| 20260903054024 | 18 | 35 | 0.0 | 3.2 | 0.00 | 0.00 | 0.00 | 85 | 1016.9 |
| 20260903053557 | 18 | 37 | 0.0 | 3.2 | 0.00 | 0.00 | 0.00 | 85 | 1017.0 |
| 20260903053514 | 18 | 37 | 0.0 | 3.2 | 0.00 | 0.00 | 0.00 | 85 | 1017.0 |
| 20260903053014 | 18 | 34 | 1.6 | 3.2 | 0.00 | 0.00 | 0.00 | 84 | 1017.0 |
| 20260903052529 | 18 | 35 | 0.0 | 0.0 | 0.00 | 0.00 | 0.00 | 84 | 1017.0 |
| 20260903052026 | 18 | 38 | 0.0 | 0.0 | 0.00 | 0.00 | 0.00 | 84 | 1017.0 |
| 20260903051615 | 18 | 35 | 0.0 | 0.0 | 0.00 | 0.00 | 0.00 | 84 | 1017.0 |
| 20260903051048 | 18 | 36 | 0.0 | 0.0 | 0.00 | 0.00 | 0.00 | 84 | 1017.1 |
| 20260903050601 | 18 | 38 | 0.0 | 0.0 | 0.00 | 0.00 | 0.00 | 84 | 1017.0 |
| 20260903050111 | 18 | 36 | 0.0 | 0.0 | 0.00 | 0.00 | 0.00 | 83 | 1017.0 |
| 20260903045541 | 18 | 35 | 0.0 | 0.0 | 0.00 | 0.00 | 0.00 | 83 | 1017.0 |
| 20260903045013 | 18 | 36 | 0.0 | 0.0 | 0.00 | 0.00 | 0.00 | 82 | 1017.0 |
| 20260903044515 | 18 | 36 | 0.0 | 0.0 | 0.00 | 0.00 | 0.00 | 82 | 1017.0 |
| 20260903044108 | 18 | 38 | 0.0 | 0.0 | 0.00 | 0.00 | 0.00 | 81 | 1016.9 |
| 20260903044026 | 18 | 38 | 0.0 | 0.0 | 0.00 | 0.00 | 0.00 | 81 | 1016.9 |
| 20260903043518 | 18 | 35 | 0.0 | 0.0 | 0.00 | 0.00 | 0.00 | 81 | 1016.9 |
| 20260903043040 | 18 | 35 | 0.0 | 3.2 | 0.00 | 0.00 | 0.00 | 80 | 1016.9 |
| 20260903042517 | 18 | 35 | 0.0 | 3.2 | 0.00 | 0.00 | 0.00 | 81 | 1016.9 |
| 20260903042032 | 18 | 34 | 0.0 | 3.2 | 0.00 | 0.00 | 0.00 | 80 | 1016.8 |
| 20260903041553 | 19 | 34 | 0.0 | 3.2 | 0.00 | 0.00 | 0.00 | 79 | 1016.8 |
| 20260903041046 | 19 | 38 | 0.0 | 4.8 | 0.00 | 0.00 | 0.00 | 80 | 1016.8 |
| 20260903040615 | 20 | 38 | 3.2 | 6.4 | 0.00 | 0.00 | 0.00 | 81 | 1016.8 |
| 20260903040532 | 20 | 38 | 3.2 | 6.4 | 0.00 | 0.00 | 0.00 | 81 | 1016.8 |
| 20260903040031 | 19 | 35 | 4.8 | 6.4 | 0.00 | 0.00 | 0.00 | 81 | 1016.7 |
| 20260903035524 | 19 | 35 | 1.6 | 4.8 | 0.00 | 0.00 | 0.00 | 81 | 1016.6 |
| 20260903035022 | 20 | 34 | 3.2 | 4.8 | 0.00 | 0.00 | 0.00 | 81 | 1016.5 |
| 20260903034611 | 20 | 36 | 1.6 | 4.8 | 0.00 | 0.00 | 0.00 | 80 | 1016.4 |
| 20260903034102 | 20 | 34 | 1.6 | 4.8 | 0.00 | 0.00 | 0.00 | 80 | 1016.4 |
| 20260903033554 | 20 | 32 | 1.6 | 6.4 | 0.00 | 0.00 | 0.00 | 81 | 1016.4 |
| 20260903033052 | 20 | 35 | 3.2 | 8.0 | 0.00 | 0.00 | 0.00 | 80 | 1016.4 |
| 20260903032604 | 20 | 34 | 4.8 | 8.0 | 0.00 | 0.00 | 0.00 | 80 | 1016.3 |
| 20260903032522 | 20 | 34 | 4.8 | 8.0 | 0.00 | 0.00 | 0.00 | 80 | 1016.3 |
| 20260903032015 | 20 | 32 | 4.8 | 6.4 | 0.00 | 0.00 | 0.00 | 79 | 1016.2 |
| 20260903031537 | 20 | 36 | 3.2 | 8.0 | 0.00 | 0.00 | 0.00 | 79 | 1016.2 |
| 20260903031109 | 20 | 35 | 4.8 | 8.0 | 0.00 | 0.00 | 0.00 | 79 | 1016.1 |
| 20260903030541 | 20 | 36 | 4.8 | 8.0 | 0.00 | 0.00 | 0.00 | 78 | 1016.1 |
| 20260903030042 | 20 | 36 | 3.2 | 4.8 | 0.00 | 0.00 | 0.00 | 77 | 1016.0 |
| 20260903025537 | 20 | 36 | 3.2 | 4.8 | 0.00 | 0.00 | 0.00 | 77 | 1016.1 |
| 20260903025029 | 20 | 37 | 3.2 | 4.8 | 0.00 | 0.00 | 0.00 | 76 | 1016.1 |
| 20260903024527 | 20 | 36 | 1.6 | 6.4 | 0.00 | 0.00 | 0.00 | 76 | 1016.1 |
| 20260903024024 | 20 | 36 | 4.8 | 8.0 | 0.00 | 0.00 | 0.00 | 76 | 1016.0 |
| 20260903023538 | 20 | 35 | 6.4 | 8.0 | 0.00 | 0.00 | 0.00 | 76 | 1016.0 |
| 20260903023055 | 20 | 36 | 6.4 | 8.0 | 0.00 | 0.00 | 0.00 | 76 | 1016.0 |
| 20260903022608 | 20 | 35 | 4.8 | 8.0 | 0.00 | 0.00 | 0.00 | 76 | 1016.0 |
| 20260903022525 | 20 | 35 | 4.8 | 8.0 | 0.00 | 0.00 | 0.00 | 76 | 1016.0 |
| 20260903022040 | 20 | 34 | 4.8 | 9.7 | 0.00 | 0.00 | 0.00 | 76 | 1016.0 |
| 20260903021540 | 20 | 35 | 8.0 | 12.9 | 0.00 | 0.00 | 0.00 | 75 | 1016.0 |
| 20260903021033 | 20 | 32 | 6.4 | 12.9 | 0.00 | 0.00 | 0.00 | 73 | 1016.0 |
| 20260903020547 | 20 | 35 | 6.4 | 12.9 | 0.00 | 0.00 | 0.00 | 73 | 1016.0 |
| 20260903020107 | 21 | 35 | 8.0 | 12.9 | 0.00 | 0.00 | 0.00 | 71 | 1015.9 |
| 20260903015558 | 21 | 35 | 6.4 | 12.9 | 0.00 | 0.00 | 0.00 | 70 | 1015.9 |
| 20260903015049 | 21 | 35 | 8.0 | 12.9 | 0.00 | 0.00 | 0.00 | 69 | 1015.9 |
| 20260903014527 | 21 | 35 | 8.0 | 12.9 | 0.00 | 0.00 | 0.00 | 67 | 1015.9 |
| 20260903014020 | 21 | 35 | 6.4 | 14.5 | 0.00 | 0.00 | 0.00 | 67 | 1015.9 |
| 20260903013513 | 21 | 35 | 8.0 | 14.5 | 0.00 | 0.00 | 0.00 | 67 | 1015.9 |
| 20260903013035 | 21 | 34 | 9.7 | 12.9 | 0.00 | 0.00 | 0.00 | 67 | 1015.9 |
| 20260903012608 | 21 | 35 | 6.4 | 14.5 | 0.00 | 0.00 | 0.00 | 68 | 1015.9 |
| 20260903012100 | 22 | 35 | 9.7 | 17.7 | 0.00 | 0.00 | 0.00 | 65 | 1015.9 |
| 20260903012017 | 22 | 35 | 9.7 | 17.7 | 0.00 | 0.00 | 0.00 | 65 | 1015.9 |
| 20260903011537 | 22 | 36 | 11.3 | 17.7 | 0.00 | 0.00 | 0.00 | 66 | 1015.9 |
| 20260903011029 | 22 | 35 | 11.3 | 14.5 | 0.00 | 0.00 | 0.00 | 65 | 1015.8 |
| 20260903010542 | 22 | 35 | 9.7 | 14.5 | 0.00 | 0.00 | 0.00 | 64 | 1015.8 |
| 20260903010113 | 22 | 36 | 11.3 | 14.5 | 0.00 | 0.00 | 0.00 | 63 | 1015.7 |
| 20260903005604 | 22 | 32 | 11.3 | 16.1 | 0.00 | 0.00 | 0.00 | 62 | 1015.7 |
| 20260903005522 | 22 | 32 | 11.3 | 16.1 | 0.00 | 0.00 | 0.00 | 62 | 1015.7 |
| 20260903005035 | 22 | 35 | 9.7 | 19.3 | 0.00 | 0.00 | 0.00 | 61 | 1015.7 |
| 20260903004534 | 22 | 35 | 11.3 | 19.3 | 0.00 | 0.00 | 0.00 | 60 | 1015.8 |
| 20260903004046 | 22 | 37 | 9.7 | 14.5 | 0.00 | 0.00 | 0.00 | 61 | 1015.6 |
| 20260903003541 | 22 | 35 | 6.4 | 14.5 | 0.00 | 0.00 | 0.00 | 62 | 1015.7 |
| 20260903003103 | 23 | 31 | 8.0 | 17.7 | 0.00 | 0.00 | 0.00 | 59 | 1015.7 |
| 20260903002610 | 23 | 35 | 9.7 | 17.7 | 0.00 | 0.00 | 0.00 | 58 | 1015.7 |
| 20260903002528 | 23 | 35 | 9.7 | 17.7 | 0.00 | 0.00 | 0.00 | 58 | 1015.7 |
| 20260903002101 | 23 | 35 | 9.7 | 17.7 | 0.00 | 0.00 | 0.00 | 59 | 1015.7 |
| 20260903001519 | 23 | 35 | 9.7 | 17.7 | 0.00 | 0.00 | 0.00 | 62 | 1015.7 |
| 20260903001017 | 23 | 35 | 9.7 | 16.1 | 0.00 | 0.00 | 0.00 | 60 | 1015.7 |
| 20260903000608 | 22 | 35 | 12.9 | 17.7 | 0.00 | 0.00 | 0.00 | 62 | 1015.7 |
| 20260903000526 | 22 | 35 | 12.9 | 17.7 | 0.00 | 0.00 | 0.00 | 62 | 1015.7 |
| 20260903000107 | 23 | 36 | 11.3 | 17.7 | 0.00 | 0.00 | 0.00 | 60 | 1015.7 |
| 20260903000024 | 23 | 36 | 11.3 | 17.7 | 0.00 | 0.00 | 0.00 | 60 | 1015.7 |
| 20260902235518 | 23 | 36 | 14.5 | 22.5 | 0.00 | 0.00 | 0.00 | 61 | 1015.8 |
| 20260902235033 | 23 | 35 | 12.9 | 22.5 | 0.00 | 0.00 | 0.00 | 62 | 1015.8 |
| 20260902234551 | 23 | 35 | 11.3 | 17.7 | 0.00 | 0.00 | 0.00 | 62 | 1015.9 |
| 20260902234104 | 23 | 37 | 9.7 | 17.7 | 0.00 | 0.00 | 0.00 | 60 | 1015.9 |
| 20260902234021 | 23 | 37 | 9.7 | 17.7 | 0.00 | 0.00 | 0.00 | 60 | 1015.9 |
| 20260902233555 | 23 | 35 | 12.9 | 17.7 | 0.00 | 0.00 | 0.00 | 59 | 1015.9 |
| 20260902233513 | 23 | 35 | 12.9 | 17.7 | 0.00 | 0.00 | 0.00 | 59 | 1015.9 |
| 20260902233034 | 23 | 35 | 11.3 | 19.3 | 0.00 | 0.00 | 0.00 | 61 | 1016.0 |
| 20260902232607 | 23 | 35 | 12.9 | 17.7 | 0.00 | 0.00 | 0.00 | 61 | 1016.0 |
| 20260902232019 | 23 | 35 | 12.9 | 20.9 | 0.00 | 0.00 | 0.00 | 59 | 1016.0 |
| 20260902231602 | 23 | 36 | 12.9 | 20.9 | 0.00 | 0.00 | 0.00 | 61 | 1016.0 |
| 20260902231519 | 23 | 36 | 12.9 | 20.9 | 0.00 | 0.00 | 0.00 | 61 | 1016.0 |
| 20260902231013 | 23 | 34 | 9.7 | 19.3 | 0.00 | 0.00 | 0.00 | 63 | 1016.1 |
| 20260902230607 | 23 | 32 | 16.1 | 20.9 | 0.00 | 0.00 | 0.00 | 60 | 1016.1 |
| 20260902230108 | 23 | 35 | 12.9 | 19.3 | 0.00 | 0.00 | 0.00 | 62 | 1016.1 |
| 20260902230026 | 23 | 35 | 12.9 | 19.3 | 0.00 | 0.00 | 0.00 | 62 | 1016.1 |
| 20260902225559 | 23 | 35 | 11.3 | 19.3 | 0.00 | 0.00 | 0.00 | 60 | 1016.1 |
| 20260902225111 | 23 | 34 | 11.3 | 22.5 | 0.00 | 0.00 | 0.00 | 60 | 1016.2 |
| 20260902225028 | 23 | 34 | 11.3 | 22.5 | 0.00 | 0.00 | 0.00 | 60 | 1016.2 |
| 20260902224526 | 23 | 34 | 14.5 | 22.5 | 0.00 | 0.00 | 0.00 | 61 | 1016.2 |
| 20260902224020 | 23 | 34 | 12.9 | 22.5 | 0.00 | 0.00 | 0.00 | 60 | 1016.2 |
| 20260902223513 | 23 | 35 | 14.5 | 22.5 | 0.00 | 0.00 | 0.00 | 61 | 1016.2 |
| 20260902223035 | 23 | 35 | 12.9 | 25.7 | 0.00 | 0.00 | 0.00 | 60 | 1016.3 |